Terminal Aerodrome Forecast
Issued by NWS Columbia, SC

Home | Current Version | Previous Version | Text Only | Print | Product List | Glossary On
Versions: 1 2 3 4 5 6 7 8 9 10 11 12 13 14 15 16 17 18 19 20 21 22 23 24 25 26 27 28 29 30 31 32 33 34 35 36 37 38 39 40 41 42 43 44 45 46 47 48 49 50
841
FTAK31 PAJN 251307 AAB
TAFAGS
TAF AMD
PAGS 251307Z 2513/2612 33007KT 4SM -SN BR SCT007 BKN015 OVC035
      TEMPO 2513/2515 2SM -SN BR BKN007 OVC015
     FM251600 33012KT 6SM -SN SCT015 BKN035 BKN050
     FM251800 34010KT P6SM SCT035 BKN100 WS020/20030KT
     FM260000 34004KT P6SM SCT100
      AMD LTD TO CLD VIS AND WIND=

USA.gov is the U.S. government's official web portal to all federal, state and local government web resources and services.